Tucumcari, NM

11:04 AM MDT on October 20, 2017 (GMT -0600)
Tucumcari Municipal

Weather History for KTCC - October, 2012

Change the Weather History Date:

Friday, October 5, 2012

  Actual Average Record
Temperature  
Mean Temperature 60 °F -  
Max Temperature 78 °F 79 °F 93 °F (1928)
Min Temperature 42 °F 49 °F 33 °F (1985)
Degree Days  
Heating Degree Days 5    
Growing Degree Days 10 (Base 50)    
Moisture  
Dew Point 39 °F    
Average Humidity 56    
Maximum Humidity 81    
Minimum Humidity 28    
Precipitation  
Precipitation 0.00 in - - ()
Sea Level Pressure  
Sea Level Pressure 30.05 in    
Wind  
Wind Speed 9 mph (ENE)    
Max Wind Speed 26 mph    
Max Gust Speed 33 mph    
Visibility 10 miles    
Events      
Averages and records for this station are not official NWS values.
T = Trace of Precipitation, MM = Missing Value Source: NWS Daily Summary

Daily Weather History Graph

Daily Weather History Graph

Search for Another Location

Airport or City:

Trip Planner

Search our weather history database for the weather conditions in past years. The results will help you decide how hot, cold, wet, or windy it might be!

Date:

Astronomy

Oct. 05, 2012 Rise Set
Actual Time 6:52 AM MDT 6:31 PM MDT
Civil Twilight 6:27 AM MDT 6:57 PM MDT
Nautical Twilight 5:58 AM MDT 7:26 PM MDT
Astronomical Twilight 5:28 AM MDT 7:56 PM MDT
Moon 10:07 PM MDT (10/5) 11:52 AM MDT (10/5)
Length of Visible Light 12h 29m
Length of Day
11h 39m
Waning Gibbous, 73% of the Moon is Illuminated
Oct 5
Waning Gibbous
Oct 8
Last Quarter
Oct 15
New
Oct 21
First Quarter
Oct 29
Full

Hourly Weather History & Observations

Time (MDT) Temp. Windchill Dew Point Humidity Pressure Visibility Wind Dir Wind Speed Gust Speed Precip Events Conditions
12:53 AM 48.9 °F - 37.9 °F 66% 30.11 in 10.0 mi ENE 8.1 mph - N/A   Clear
1:53 AM 46.0 °F 43.1 °F 36.0 °F 68% 30.12 in 10.0 mi East 5.8 mph - N/A   Clear
2:53 AM 46.0 °F 43.9 °F 37.0 °F 71% 30.10 in 10.0 mi East 4.6 mph - N/A   Clear
3:53 AM 44.1 °F 42.5 °F 37.0 °F 76% 30.09 in 10.0 mi East 3.5 mph - N/A   Clear
4:53 AM 43.0 °F 41.3 °F 37.0 °F 80% 30.09 in 10.0 mi ENE 3.5 mph - N/A   Clear
5:53 AM 43.0 °F - 36.0 °F 76% 30.10 in 10.0 mi Calm Calm - N/A   Scattered Clouds
6:53 AM 42.1 °F - 36.0 °F 79% 30.11 in 10.0 mi Calm Calm - N/A   Partly Cloudy
7:20 AM 42.8 °F 40.1 °F 37.4 °F 81% 30.17 in 10.0 mi NNE 4.6 mph - N/A   Mostly Cloudy
7:53 AM 46.9 °F - 39.9 °F 77% 30.11 in 10.0 mi Calm Calm - N/A   Overcast
9:53 AM 54.0 °F - 39.9 °F 59% 30.10 in 10.0 mi Variable 4.6 mph - N/A   Overcast
10:18 AM 55.4 °F - 41.0 °F 58% 30.17 in 10.0 mi East 6.9 mph - N/A   Partly Cloudy
10:53 AM 57.9 °F - 41.0 °F 53% 30.08 in 10.0 mi ENE 5.8 mph - N/A   Clear
11:53 AM 63.0 °F - 43.0 °F 48% 30.03 in 10.0 mi East 4.6 mph - N/A   Clear
12:53 PM 69.1 °F - 43.0 °F 39% 29.99 in 10.0 mi Variable 6.9 mph - N/A   Clear
1:53 PM 73.9 °F - 44.1 °F 34% 29.93 in 10.0 mi ENE 8.1 mph - N/A   Clear
2:53 PM 78.1 °F - 42.1 °F 28% 29.89 in 10.0 mi East 10.4 mph - N/A   Clear
3:53 PM 77.0 °F - 44.1 °F 31% 29.87 in 10.0 mi East 21.9 mph 29.9 mph N/A   Clear
4:53 PM 75.0 °F - 44.1 °F 33% 29.88 in 10.0 mi East 21.9 mph 29.9 mph N/A   Clear
5:53 PM 69.1 °F - 45.0 °F 42% 29.92 in 10.0 mi ENE 25.3 mph 29.9 mph N/A   Clear
6:53 PM 64.0 °F - 43.0 °F 46% 29.98 in 10.0 mi East 26.5 mph 33.4 mph N/A   Clear
7:53 PM 57.0 °F - 37.9 °F 49% 30.04 in 10.0 mi ENE 18.4 mph 29.9 mph N/A   Clear
8:53 PM 54.0 °F - 37.0 °F 53% 30.09 in 10.0 mi ENE 24.2 mph 31.1 mph N/A   Mostly Cloudy
9:53 PM 53.1 °F - 35.1 °F 50% 30.11 in 10.0 mi ENE 25.3 mph 32.2 mph N/A   Overcast
10:53 PM 51.1 °F - 34.0 °F 52% 30.12 in 10.0 mi ENE 24.2 mph - N/A   Overcast
11:53 PM 50.0 °F - 36.0 °F 59% 30.13 in 10.0 mi ENE 21.9 mph 28.8 mph N/A   Overcast